15min,AgWx,beryljct,423,29NOV2018:00:00:00,38.1,12.87,36.5,36.1,36.1,36.2,35.9,91,91,90,0.653,33.6,33.8,33.4,4.121,2.5,331,6.5,4.8,0.00003,0.00005,38.2,39.0,21,0,0,37.4,8.50,0.00,0.00
15min,AgWx,beryljct,423,29NOV2018:00:15:00,38.2,12.85,36.6,35.9,36.2,36.6,35.9,90,91,89,0.641,33.5,34.2,33.1,1.995,3.8,332,15,6.5,0.00005,0.00006,38.1,39.0,21,0,0,37.6,8.50,0.00,0.00
15min,AgWx,beryljct,423,29NOV2018:00:30:00,38.1,12.85,36.5,36.5,36.0,36.5,35.7,90,91,90,0.659,33.5,34.0,33.1,3.551,3.0,314,14,4.7,0.00004,0.00005,38.1,39.0,21,0,0,37.5,8.50,0.00,0.00
15min,AgWx,beryljct,423,29NOV2018:00:45:00,38.2,12.85,37.5,37.2,37.0,37.3,36.5,90,90,89,0.665,34.2,34.4,33.8,1.03,3.7,293,8.6,6.2,0.00005,0.00006,38.1,39.0,21,0,0,38.3,8.49,0.00,0.00
15min,AgWx,beryljct,423,29NOV2018:01:00:00,38.4,12.85,37.5,37.2,37.1,37.3,36.9,89,90,89,0.665,34.2,34.4,34.0,1.206,0.8,297,0.1,1.8,0.00002,0.00003,38.0,39.0,21,0,0,38.2,8.50,0.00,0.00
15min,AgWx,beryljct,423,29NOV2018:01:15:00,38.5,12.84,37.8,37.0,37.4,37.8,37.0,88,89,87,0.662,34.2,34.5,33.9,0.702,2.4,297,14,3.6,0.00004,0.00006,38.0,39.0,21,0,0,38.4,8.50,0.00,0.00
15min,AgWx,beryljct,423,29NOV2018:01:30:00,38.4,12.84,36.0,35.4,35.8,36.9,35.3,90,92,89,0.640,33.3,33.9,33.0,4.012,2.7,82,18,4.5,0.00004,0.00005,38.0,39.0,21,0,0,37.4,8.50,0.00,0.00
15min,AgWx,beryljct,423,29NOV2018:01:45:00,38.1,12.84,35.6,34.8,35.2,35.4,34.8,92,93,92,0.632,33.2,33.4,32.8,0.986,2.1,105,2.7,4.1,0.00002,0.00004,38.0,39.0,21,0,0,36.4,8.50,0.00,0.00
15min,AgWx,beryljct,423,29NOV2018:02:00:00,37.7,12.83,35.2,34.9,34.8,34.9,34.7,93,93,92,0.639,32.9,33.2,32.7,0,0.2,103,0.0,0.9,0.00001,0.00001,38.0,39.0,21,0,0,36.0,8.49,0.00,0.00
15min,AgWx,beryljct,423,29NOV2018:02:15:00,37.5,12.82,35.9,36.0,35.4,36.0,34.8,93,94,92,0.661,33.6,34.2,33.1,0,1.6,104,38,4.6,0.00002,0.00003,38.0,39.0,21,0,0,36.4,8.49,0.00,0.00
15min,AgWx,beryljct,423,29NOV2018:02:30:00,37.4,12.82,36.2,35.0,35.9,36.2,35.0,91,92,90,0.625,33.5,34.0,32.5,0.723,0.4,41,20,1.8,0.00001,0.00002,38.0,39.0,21,0,0,36.6,8.49,0.00,0.00
15min,AgWx,beryljct,423,29NOV2018:02:45:00,37.2,12.82,36.6,36.3,36.0,36.6,35.0,91,92,89,0.645,33.5,33.9,32.7,0,1.4,338,25,3.7,0.00002,0.00004,37.9,39.0,21,0,0,36.5,8.49,0.00,0.00
15min,AgWx,beryljct,423,29NOV2018:03:00:00,37.4,12.82,36.7,36.4,36.3,36.5,36.1,89,90,89,0.655,33.4,33.8,33.1,2.784,2.2,289,10,3.8,0.00004,0.00005,37.9,39.0,21,0,0,37.4,8.49,0.00,0.00
15min,AgWx,beryljct,423,29NOV2018:03:15:00,37.6,12.81,36.5,35.9,36.2,36.7,35.7,90,91,89,0.652,33.5,34.0,33.1,3.354,2.8,325,19,3.6,0.00004,0.00005,37.9,39.0,21,0,0,37.7,8.49,0.00,0.00
15min,AgWx,beryljct,423,29NOV2018:03:30:00,37.7,12.81,36.6,36.3,36.1,36.5,35.7,91,96,90,0.656,33.7,35.2,33.4,2.85,2.4,304,21,3.9,0.00003,0.00004,37.9,39.0,21,0,0,37.6,8.49,0.00,0.00
15min,AgWx,beryljct,423,29NOV2018:03:45:00,37.9,12.8,36.8,36.4,36.3,36.5,36.2,90,90,89,0.650,33.6,33.8,33.5,1.578,1.0,303,3.1,3.2,0.00002,0.00003,37.9,39.0,21,0,0,37.8,8.49,0.00,0.00
15min,AgWx,beryljct,423,29NOV2018:04:00:00,38.0,12.8,36.7,35.8,36.4,36.8,35.8,89,90,88,0.643,33.5,33.9,33.1,1.82,2.0,360,37,3.3,0.00003,0.00005,37.8,39.0,21,0,0,37.9,8.49,0.00,0.00
15min,AgWx,beryljct,423,29NOV2018:04:15:00,38.0,12.78,36.1,35.7,35.7,35.8,35.6,91,92,90,0.646,33.4,33.5,33.2,3.42,1.9,300,58,4.2,0.00003,0.00004,37.8,39.0,21,0,0,37.4,8.49,0.00,0.00
15min,AgWx,beryljct,423,29NOV2018:04:30:00,38.0,12.78,36.3,35.7,35.9,36.0,35.7,90,91,90,0.641,33.4,33.5,33.1,2.017,2.2,324,21,3.4,0.00003,0.00005,37.8,39.0,21,0,0,37.6,8.49,0.00,0.00
15min,AgWx,beryljct,423,29NOV2018:04:45:00,37.9,12.77,36.1,35.7,35.7,35.9,35.6,91,91,90,0.646,33.3,33.5,33.2,3.749,2.9,305,5.3,4.5,0.00004,0.00005,37.8,38.9,21,0,0,37.4,8.49,0.00,0.00
15min,AgWx,beryljct,423,29NOV2018:05:00:00,37.9,12.8,36.3,35.8,35.9,36.0,35.7,91,91,91,0.650,33.6,33.7,33.4,3.595,3.5,317,11,4.4,0.00004,0.00005,37.8,38.9,21,0,0,37.5,8.49,0.00,0.00
15min,AgWx,beryljct,423,29NOV2018:05:15:00,37.9,12.79,36.2,36.1,35.8,36.1,35.6,92,93,91,0.662,33.7,34.1,33.5,1.052,2.5,315,6.0,3.8,0.00003,0.00004,37.8,38.9,21,0,0,37.3,8.49,0.00,0.00
15min,AgWx,beryljct,423,29NOV2018:05:30:00,37.9,12.79,37.0,36.7,36.4,36.8,36.0,90,92,88,0.652,33.8,34.0,33.6,2.872,1.2,301,17,3.2,0.00002,0.00003,37.8,38.9,21,0,0,37.7,8.49,0.00,0.00
15min,AgWx,beryljct,423,29NOV2018:05:45:00,38.0,12.78,36.9,36.2,36.5,36.9,36.1,89,90,87,0.649,33.5,33.7,33.2,3.266,2.6,321,3.8,3.8,0.00004,0.00006,37.8,38.9,21,0,0,38.0,8.49,0.00,0.00
15min,AgWx,beryljct,423,29NOV2018:06:00:00,37.9,12.77,36.1,35.5,35.8,36.1,35.5,91,92,90,0.644,33.4,33.5,33.3,3.595,2.9,322,12,4.1,0.00004,0.00005,37.8,38.9,21,0,0,37.3,8.49,0.00,0.00
15min,AgWx,beryljct,423,29NOV2018:06:15:00,37.8,12.78,35.8,35.2,35.4,35.5,35.2,92,93,92,0.645,33.4,33.5,33.3,4.867,3.8,335,16,6.2,0.00003,0.00005,37.8,38.9,21,0,0,36.8,8.49,0.00,0.00
15min,AgWx,beryljct,423,29NOV2018:06:30:00,37.6,12.78,35.6,35.3,35.2,35.3,35.2,93,93,93,0.649,33.4,33.6,33.3,2.674,4.3,305,11,6.0,0.00003,0.00004,37.8,38.9,21,0,0,36.7,8.49,0.00,0.00
15min,AgWx,beryljct,423,29NOV2018:06:45:00,37.4,12.78,35.9,35.5,35.4,35.6,35.2,93,93,93,0.651,33.6,33.7,33.4,2.828,3.6,316,16,4.9,0.00005,0.00008,37.8,38.9,21,0,0,36.8,8.49,0.00,0.00
15min,AgWx,beryljct,423,29NOV2018:07:00:00,37.4,12.78,36.1,35.6,35.6,35.8,35.5,92,93,92,0.648,33.6,33.8,33.5,4.275,4.0,308,36,7.1,0.00006,0.00010,37.8,38.9,21,0,0,37.1,8.49,0.00,0.00
15min,AgWx,beryljct,423,29NOV2018:07:15:00,37.5,12.76,36.1,35.6,35.7,35.7,35.6,92,92,92,0.648,33.6,33.7,33.5,3.946,3.2,316,7.9,4.5,0.00005,0.00008,37.8,38.9,21,0,0,37.1,8.49,0.00,0.00
15min,AgWx,beryljct,423,29NOV2018:07:30:00,37.4,12.77,36.2,36.0,35.7,36.0,35.4,92,92,92,0.656,33.6,33.9,33.3,3.836,3.6,343,19,6.0,0.00006,0.00009,37.8,38.9,21,1,0,36.6,8.49,0.00,0.00
15min,AgWx,beryljct,423,29NOV2018:07:45:00,37.4,12.77,36.4,35.9,36.0,36.1,35.8,91,92,90,0.641,33.6,33.8,33.2,0.482,2.8,332,14,5.3,0.00007,0.00010,37.8,38.9,21,4,0,37.0,8.49,0.00,0.00
15min,AgWx,beryljct,423,29NOV2018:08:00:00,37.2,12.84,36.5,36.1,36.0,36.3,35.6,90,91,88,0.638,33.2,33.6,32.8,3.223,3.6,81,39,5.5,0.00018,0.00023,37.8,38.9,21,28,0,37.2,8.49,0.00,0.00
15min,AgWx,beryljct,423,29NOV2018:08:15:00,37.3,12.82,36.1,35.9,35.8,36.1,35.6,91,92,89,0.653,33.3,33.7,33.0,3.025,3.7,50,16,4.8,0.00024,0.00030,37.8,38.9,21,44,0,38.6,8.49,0.00,0.00
15min,AgWx,beryljct,423,29NOV2018:08:30:00,37.5,12.79,36.5,36.3,36.0,36.3,35.8,92,92,91,0.664,33.8,34.1,33.6,1.688,2.7,10,32,4.7,0.00019,0.00023,37.7,38.9,21,34,0,38.9,8.49,0.00,0.00
15min,AgWx,beryljct,423,29NOV2018:08:45:00,37.7,12.87,36.8,36.5,36.3,36.5,36.2,91,92,91,0.660,34.0,34.1,33.9,1.052,0.8,303,2.6,3.2,0.00019,0.00021,37.7,38.9,21,37,0,39.1,8.49,0.00,0.00
15min,AgWx,beryljct,423,29NOV2018:09:00:00,38.3,13.06,40.5,41.2,39.5,41.6,36.5,73,91,60,0.571,31.4,34.2,28.8,6.664,7.0,176,18,13.9,0.00065,0.00090,37.7,38.9,21,90,0,42.6,8.49,0.00,0.00
15min,AgWx,beryljct,423,29NOV2018:09:15:00,40.2,13.86,43.2,44.1,42.6,44.1,41.2,59,65,55,0.541,29.3,30.4,27.9,16.18,10.3,172,9.1,16.2,0.00134,0.00187,37.7,38.9,21,242,0,47.9,8.49,0.00,0.00
15min,AgWx,beryljct,423,29NOV2018:09:30:00,42.5,14.53,44.6,44.9,44.2,45.0,43.7,54,56,51,0.525,28.5,29.4,27.6,10.79,12.2,176,8.8,16.6,0.00158,0.00228,37.8,38.9,21,253,0,49.6,8.48,0.00,0.00
15min,AgWx,beryljct,423,29NOV2018:09:45:00,45.1,14.51,46.1,46.6,45.7,46.6,45.0,51,53,49,0.543,28.7,29.6,27.4,19.25,13.1,178,11,19.3,0.00212,0.00292,37.8,38.9,21,417,0,54.1,8.48,0.00,0.00
15min,AgWx,beryljct,423,29NOV2018:10:00:00,46.9,14.48,46.5,46.3,46.3,46.6,46.0,48,51,46,0.511,27.8,29.1,26.8,16.02,17.0,176,9.3,22.9,0.00225,0.00324,37.8,38.9,21,393,0,52.7,8.48,0.00,0.00
15min,AgWx,beryljct,423,29NOV2018:10:15:00,47.6,13.7,46.1,45.4,45.9,46.5,45.4,49,50,46,0.509,27.7,28.5,26.7,14.03,18.7,186,12,27.6,0.00192,0.00292,37.9,38.9,21,225,0,50.1,8.48,0.00,0.00
15min,AgWx,beryljct,423,29NOV2018:10:30:00,47.9,14.42,46.4,46.0,46.1,46.7,45.3,49,52,46,0.542,27.9,29.2,26.4,17.06,18.8,186,12,25.1,0.00222,0.00323,37.9,38.9,21,365,0,51.6,8.48,0.00,0.00
15min,AgWx,beryljct,423,29NOV2018:10:45:00,48.8,14.5,47.2,46.8,46.9,47.4,46.1,50,52,47,0.530,29.1,30.6,28.0,17.84,14.2,186,14,22.7,0.00241,0.00331,38.0,38.9,21,459,0,55.8,8.48,0.00,0.00
15min,AgWx,beryljct,423,29NOV2018:11:00:00,49.6,14.44,46.4,45.9,46.3,46.8,45.7,53,58,48,0.597,30.2,32.1,28.0,11.62,19.0,175,10,28.0,0.00297,0.00396,38.1,38.9,21,670,0,56.0,8.48,0.00,0.00
15min,AgWx,beryljct,423,29NOV2018:11:15:00,50.0,14.42,45.6,45.2,45.4,46.2,44.8,57,59,54,0.604,30.9,31.8,29.9,23.04,18.2,179,11,23.7,0.00253,0.00340,38.3,38.9,21,574,0,54.3,8.48,0.00,0.00
15min,AgWx,beryljct,423,29NOV2018:11:30:00,49.9,14.55,45.9,46.1,45.6,47.1,44.5,59,61,56,0.595,31.9,33.6,30.9,19.14,16.9,188,10,24.7,0.00264,0.00346,38.4,39.0,21,619,0,55.0,8.47,0.00,0.00
15min,AgWx,beryljct,423,29NOV2018:11:45:00,50.5,14.5,46.9,46.7,46.7,47.6,45.7,56,59,54,0.601,31.8,32.8,30.8,18.24,17.5,184,12,23.5,0.00299,0.00390,38.6,39.0,21,684,0,56.7,8.47,0.00,0.00
15min,AgWx,beryljct,423,29NOV2018:12:00:00,50.7,14.01,47.0,47.9,46.6,47.9,46.0,55,56,52,0.603,31.2,32.1,30.6,14.1,18.2,180,11,26.0,0.00278,0.00372,38.8,39.0,21,615,0,54.4,8.47,0.00,0.00
15min,AgWx,beryljct,423,29NOV2018:12:15:00,51.2,14.03,48.2,47.4,47.9,48.8,47.1,51,53,49,0.559,30.6,31.8,29.8,19.62,17.6,177,11,24.4,0.00260,0.00362,39.1,39.0,21,500,0,55.7,8.46,0.00,0.00
15min,AgWx,beryljct,423,29NOV2018:12:30:00,50.7,14.11,47.5,47.9,47.1,47.9,46.7,50,51,49,0.558,29.6,30.2,29.0,19.03,17.4,178,10,21.9,0.00221,0.00319,39.3,39.0,21,362,0,52.5,8.47,0.00,0.00
15min,AgWx,beryljct,423,29NOV2018:12:45:00,50.7,14.02,48.4,48.5,48.0,48.7,47.5,48,50,46,0.545,29.1,30.7,28.3,16.27,19.1,186,11,28.0,0.00244,0.00355,39.6,39.1,21,401,0,54.0,8.46,0.00,0.00
15min,AgWx,beryljct,423,29NOV2018:13:00:00,51.3,13.99,49.4,48.9,49.1,49.8,48.6,45,47,44,0.551,28.9,29.9,28.0,23.08,18.6,181,11,27.7,0.00291,0.00409,39.8,39.1,21,528,0,54.5,8.46,0.00,0.00
15min,AgWx,beryljct,423,29NOV2018:13:15:00,51.5,14,48.3,47.8,48.1,48.9,47.8,49,52,47,0.569,30.0,30.9,29.2,17.47,20.1,178,11,26.9,0.00275,0.00387,40.1,39.2,21,524,0,52.7,8.46,0.00,0.00
15min,AgWx,beryljct,423,29NOV2018:13:30:00,51.5,13.99,48.1,47.7,47.9,48.8,47.3,51,53,50,0.590,30.6,31.6,29.7,19.6,18.0,183,10,26.1,0.00245,0.00346,40.3,39.3,21,462,0,52.7,8.46,0.00,0.00
15min,AgWx,beryljct,423,29NOV2018:13:45:00,51.1,14.04,46.3,45.4,46.3,47.7,45.3,56,58,52,0.601,31.3,31.9,30.7,13.35,18.9,178,9.2,26.7,0.00190,0.00279,40.5,39.3,21,327,0,50.1,8.46,0.00,0.00
15min,AgWx,beryljct,423,29NOV2018:14:00:00,49.7,14.09,44.9,44.2,44.7,45.5,44.0,61,66,57,0.632,32.2,33.7,31.1,21.86,20.0,180,9.7,27.1,0.00155,0.00231,40.7,39.4,21,256,0,49.1,8.46,0.01,0.00
15min,AgWx,beryljct,423,29NOV2018:14:15:00,48.6,13.62,44.4,43.9,44.1,44.7,43.7,66,68,64,0.625,33.5,34.6,32.6,17.65,18.0,184,9.2,22.4,0.00134,0.00197,40.9,39.5,21,255,0,49.0,8.46,0.00,0.00
15min,AgWx,beryljct,423,29NOV2018:14:30:00,47.7,13.32,44.7,44.5,44.3,44.7,43.9,63,66,60,0.615,32.5,33.2,31.4,17.63,16.6,195,8.4,25.4,0.00111,0.00175,41.1,39.6,21,96,0,47.3,8.46,0.00,0.00
15min,AgWx,beryljct,423,29NOV2018:14:45:00,46.2,14.16,42.8,41.6,42.8,44.5,41.6,70,75,62,0.667,33.7,34.7,32.2,21.81,21.2,195,9.9,31.5,0.00103,0.00160,41.3,39.7,21,158,0,44.1,8.47,0.01,0.00
15min,AgWx,beryljct,423,29NOV2018:15:00:00,45.0,14.15,41.9,41.6,41.5,41.6,41.3,78,81,75,0.708,35.3,36.2,34.1,11.14,15.7,193,11,22.7,0.00110,0.00146,41.4,39.8,21,313,0,45.3,8.47,0.00,0.00
15min,AgWx,beryljct,423,29NOV2018:15:15:00,44.8,13.35,42.2,41.7,41.9,42.4,41.4,78,80,75,0.706,35.6,36.4,34.9,9.08,9.6,214,13,14.6,0.00069,0.00096,41.5,39.9,21,195,0,46.6,8.47,0.00,0.00
15min,AgWx,beryljct,423,29NOV2018:15:30:00,44.3,13.23,41.9,41.0,41.7,42.0,41.0,78,79,77,0.681,35.2,35.6,34.7,20.3,14.9,229,11,24.6,0.00050,0.00083,41.6,39.9,21,15,0,42.4,8.48,0.01,0.00
15min,AgWx,beryljct,423,29NOV2018:15:45:00,42.9,13.18,39.5,38.3,39.5,41.0,38.3,82,86,78,0.675,34.5,34.7,34.4,10.08,14.2,237,7.7,21.5,0.00037,0.00062,41.7,40.0,21,12,91,38.7,8.51,0.03,0.03
15min,AgWx,beryljct,423,29NOV2018:16:00:00,41.5,13.17,38.1,37.3,37.8,38.3,37.3,87,88,86,0.663,34.3,34.6,34.0,7.848,8.7,253,13,12.1,0.00008,0.00020,41.7,40.1,21,20,100,38.2,8.52,0.01,0.01
15min,AgWx,beryljct,423,29NOV2018:16:15:00,40.6,13.15,37.5,36.9,37.2,37.4,36.9,88,89,88,0.658,34.0,34.2,33.8,5.612,6.4,276,12,9.3,-0.00017,-0.00010,41.8,40.2,21,14,77,37.8,8.52,0.00,0.00
15min,AgWx,beryljct,423,29NOV2018:16:30:00,40.0,13.12,37.1,36.4,36.7,37.0,36.4,90,91,89,0.658,34.1,34.3,33.8,5.371,5.9,276,8.0,8.0,-0.00003,-0.00003,41.7,40.3,21,4,100,37.5,8.53,0.01,0.01
15min,AgWx,beryljct,423,29NOV2018:16:45:00,39.4,13.11,36.2,35.0,35.9,36.5,34.9,91,91,90,0.626,33.5,34.0,32.5,9.03,8.3,279,8.9,12.8,-0.00001,-0.00001,41.7,40.3,21,2,100,36.7,8.57,0.03,0.03
15min,AgWx,beryljct,423,29NOV2018:17:00:00,38.4,13.1,34.4,33.7,34.2,34.9,33.7,92,93,91,0.607,32.1,32.7,31.7,7.782,9.0,277,8.9,11.9,-0.00002,-0.00001,41.7,40.4,21,1,100,35.3,8.59,0.02,0.03
15min,AgWx,beryljct,423,29NOV2018:17:15:00,37.7,13.09,34.3,34.0,33.8,34.0,33.7,93,93,93,0.618,32.0,32.3,31.8,6.335,7.8,264,7.7,11.1,-0.00003,-0.00003,41.6,40.5,21,1,100,35.9,8.62,0.03,0.03
15min,AgWx,beryljct,423,29NOV2018:17:30:00,37.3,13.07,34.5,34.1,34.0,34.1,33.9,93,93,93,0.618,32.2,32.3,32.1,4.647,4.6,245,47,9.3,-0.00006,-0.00007,41.6,40.5,21,0,100,35.7,8.66,0.04,0.04
15min,AgWx,beryljct,423,29NOV2018:17:45:00,37.0,13.06,34.0,33.3,33.6,34.2,33.2,93,94,93,0.603,31.9,32.4,31.6,6.708,5.1,152,19,7.1,-0.00006,-0.00006,41.4,40.6,21,0,100,35.4,8.68,0.02,0.02
15min,AgWx,beryljct,423,29NOV2018:18:00:00,36.6,13.04,33.3,32.7,32.9,33.2,32.6,94,95,94,0.593,31.5,31.6,31.2,4.56,6.1,154,12,8.2,-0.00005,-0.00005,41.3,40.6,21,0,100,35.4,8.72,0.04,0.04
15min,AgWx,beryljct,423,29NOV2018:18:15:00,36.0,13.04,32.8,32.0,32.4,32.7,32.0,95,95,95,0.582,31.0,31.4,30.8,6.533,5.5,109,23,7.0,-0.00006,-0.00006,41.2,40.6,21,0,36,35.7,8.73,0.01,0.01
15min,AgWx,beryljct,423,29NOV2018:18:30:00,35.7,13.02,32.5,32.2,32.0,32.2,31.9,95,96,95,0.588,30.9,31.1,30.7,6.182,5.4,97,16,8.1,-0.00006,-0.00007,41.0,40.7,21,0,0,36.0,8.73,0.00,0.00
15min,AgWx,beryljct,423,29NOV2018:18:45:00,35.6,13.01,32.8,32.4,32.3,32.4,32.2,96,96,96,0.596,31.2,31.4,31.1,3.354,5.2,159,21,7.3,-0.00007,-0.00007,40.8,40.7,21,0,0,35.8,8.73,0.00,0.00
15min,AgWx,beryljct,423,29NOV2018:19:00:00,35.6,13.01,32.9,32.6,32.4,32.6,32.3,96,96,96,0.601,31.4,31.6,31.3,8.51,4.6,176,18,9.7,-0.00007,-0.00008,40.7,40.7,21,0,0,35.5,8.73,0.00,0.00
15min,AgWx,beryljct,423,29NOV2018:19:15:00,35.5,13,32.8,32.2,32.4,32.6,32.2,96,96,96,0.592,31.4,31.7,31.2,5.217,6.8,173,18,10.1,-0.00005,-0.00006,40.5,40.7,21,0,72,35.4,8.75,0.01,0.01
15min,AgWx,beryljct,423,29NOV2018:19:30:00,35.4,12.98,32.9,32.5,32.4,32.6,32.2,96,96,96,0.599,31.4,31.6,31.2,2.017,3.5,195,16,5.7,-0.00009,-0.00010,40.4,40.7,21,0,91,36.1,8.75,0.01,0.00
15min,AgWx,beryljct,423,29NOV2018:19:45:00,35.3,12.97,32.9,32.5,32.5,32.6,32.4,96,96,96,0.597,31.5,31.6,31.4,3.047,3.5,159,6.6,5.5,-0.00009,-0.00011,40.3,40.7,21,0,86,35.6,8.76,0.00,0.01
15min,AgWx,beryljct,423,29NOV2018:20:00:00,35.1,12.96,33.0,32.6,32.5,32.7,32.3,96,96,96,0.602,31.5,31.7,31.3,2.302,1.5,160,50,3.2,-0.00013,-0.00018,40.1,40.7,21,0,0,35.5,8.76,0.00,0.00
15min,AgWx,beryljct,423,29NOV2018:20:15:00,35.1,12.97,33.0,32.5,32.6,32.7,32.5,96,96,96,0.597,31.5,31.7,31.4,3.398,1.7,41,41,4.0,-0.00013,-0.00017,40.0,40.7,21,0,0,35.9,8.76,0.00,0.00
15min,AgWx,beryljct,423,29NOV2018:20:30:00,35.0,12.96,32.9,32.4,32.4,32.5,32.3,96,96,96,0.595,31.4,31.5,31.2,3.201,2.7,132,9.9,4.3,-0.00010,-0.00013,39.9,40.7,21,0,0,35.9,8.76,0.00,0.00
15min,AgWx,beryljct,423,29NOV2018:20:45:00,34.9,12.96,32.9,32.4,32.4,32.5,32.3,96,96,96,0.596,31.4,31.5,31.3,0.943,1.3,134,7.1,3.8,-0.00013,-0.00018,39.8,40.7,21,0,0,35.7,8.76,0.00,0.00
15min,AgWx,beryljct,423,29NOV2018:21:00:00,34.9,12.95,33.1,32.7,32.6,32.8,32.3,96,96,96,0.604,31.6,31.8,31.3,2.74,1.7,184,7.2,3.0,-0.00012,-0.00016,39.6,40.6,21,0,0,35.8,8.76,0.00,0.00
15min,AgWx,beryljct,423,29NOV2018:21:15:00,35.0,12.94,33.1,32.8,32.7,32.8,32.6,96,96,96,0.606,31.6,31.8,31.5,0.504,2.7,176,13,3.9,-0.00010,-0.00012,39.5,40.6,21,0,0,35.8,8.76,0.00,0.00
15min,AgWx,beryljct,423,29NOV2018:21:30:00,35.1,12.95,33.4,33.1,32.9,33.1,32.7,96,96,96,0.612,31.9,32.1,31.6,0,0.6,252,20,2.7,-0.00016,-0.00024,39.4,40.6,21,0,0,35.9,8.76,0.00,0.00
15min,AgWx,beryljct,423,29NOV2018:21:45:00,35.3,12.94,33.8,33.6,33.2,33.6,33.0,96,96,96,0.624,32.2,32.5,32.0,0.899,0.9,264,0.4,2.4,-0.00015,-0.00021,39.3,40.6,21,0,0,35.7,8.76,0.00,0.00
15min,AgWx,beryljct,423,29NOV2018:22:00:00,35.5,12.94,34.2,33.9,33.7,33.9,33.6,96,96,96,0.630,32.6,32.8,32.5,3.442,2.2,278,10,3.4,-0.00012,-0.00015,39.3,40.5,21,0,0,35.7,8.76,0.00,0.00
15min,AgWx,beryljct,423,29NOV2018:22:15:00,35.7,12.92,34.5,33.7,34.0,34.4,33.7,95,96,95,0.621,32.8,33.2,32.3,4.341,4.1,289,21,5.0,-0.00008,-0.00009,39.2,40.5,21,0,0,35.8,8.76,0.00,0.00
15min,AgWx,beryljct,423,29NOV2018:22:30:00,35.8,12.92,34.1,33.6,33.7,33.9,33.6,95,96,95,0.622,32.4,32.6,32.3,2.389,3.6,320,6.3,6.2,-0.00009,-0.00010,39.1,40.5,21,0,1,35.7,8.76,0.00,0.00
15min,AgWx,beryljct,423,29NOV2018:22:45:00,35.7,12.91,34.0,33.5,33.5,33.6,33.5,96,96,95,0.620,32.4,32.5,32.3,3.705,1.9,332,2.3,3.9,-0.00012,-0.00016,39.1,40.4,21,0,11,35.6,8.76,0.00,0.00
15min,AgWx,beryljct,423,29NOV2018:23:00:00,35.8,12.91,34.1,33.7,33.6,33.8,33.5,96,96,96,0.628,32.6,32.8,32.4,0.899,2.3,349,13,4.1,-0.00011,-0.00014,39.0,40.4,21,0,62,35.8,8.76,0.00,0.00
15min,AgWx,beryljct,423,29NOV2018:23:15:00,35.8,12.89,34.2,33.7,33.7,33.9,33.6,96,96,96,0.626,32.6,32.8,32.5,4.494,2.0,346,13,5.7,-0.00012,-0.00016,39.0,40.4,21,0,100,35.9,8.77,0.00,0.01
15min,AgWx,beryljct,423,29NOV2018:23:30:00,35.7,12.9,33.8,33.2,33.4,33.7,33.1,96,96,96,0.614,32.4,32.6,32.0,2.587,2.8,332,22,5.5,-0.00010,-0.00012,38.9,40.3,21,0,64,35.2,8.77,0.00,0.00
15min,AgWx,beryljct,423,29NOV2018:23:45:00,35.6,12.89,33.8,33.4,33.3,33.5,33.2,96,96,96,0.622,32.3,32.5,32.1,1.162,1.6,290,6.0,3.0,-0.00013,-0.00017,38.9,40.3,21,0,0,35.7,8.77,0.00,0.00
15min,AgWx,bigpiney,439,29NOV2018:00:00:00,22.8,12.7,21.4,19.3,21.3,22.2,19.3,84,86,82,0.310,17.1,17.7,15.6,1.973,1.8,51,66,4.5,-0.00000,0.00000,33.0,34.9,45,0,100,0.0,.,0.00,0.00
15min,AgWx,bigpiney,439,29NOV2018:00:15:00,22.7,12.69,20.0,19.2,19.6,20.5,19.0,87,88,85,0.309,16.3,17.1,15.6,2.872,1.4,250,11,3.3,-0.00001,-0.00001,33.0,34.9,45,0,100,0.0,.,0.00,0.00
15min,AgWx,bigpiney,439,29NOV2018:00:30:00,22.5,12.68,19.3,19.2,18.9,19.2,18.7,88,89,86,0.317,16.0,16.4,15.7,0,1.5,216,52,3.3,-0.00001,-0.00001,33.0,34.9,45,0,100,0.0,.,0.00,0.00
15min,AgWx,bigpiney,439,29NOV2018:00:45:00,22.4,12.67,20.0,19.3,19.6,20.5,19.2,88,89,86,0.316,16.5,17.4,16.0,1.293,1.3,43,12,3.9,-0.00001,-0.00002,33.0,34.9,45,0,100,0.0,.,0.00,0.00
15min,AgWx,bigpiney,439,29NOV2018:01:00:00,22.3,12.66,19.8,19.2,19.4,19.9,18.9,87,88,86,0.317,16.2,16.7,15.8,0.965,1.6,56,12,2.9,-0.00001,-0.00001,33.0,34.9,45,0,100,0.0,.,0.00,0.00
15min,AgWx,bigpiney,439,29NOV2018:01:15:00,22.1,12.65,19.8,18.9,19.4,20.0,18.9,87,88,86,0.313,16.2,17.0,15.8,1.578,1.3,6.6,62,2.3,-0.00001,-0.00001,33.0,34.9,45,0,100,0.0,.,0.00,0.00
15min,AgWx,bigpiney,439,29NOV2018:01:30:00,22.0,12.64,19.1,18.9,18.8,18.9,18.6,89,90,88,0.316,16.1,16.3,15.9,1.885,2.2,268,15,3.5,-0.00000,-0.00000,33.0,34.9,45,0,100,0.0,.,0.00,0.00
15min,AgWx,bigpiney,439,29NOV2018:01:45:00,22.0,12.63,19.5,19.0,19.1,19.3,18.9,89,89,88,0.314,16.4,16.5,16.1,1.403,1.3,262,20,3.0,-0.00001,-0.00002,33.0,34.9,45,0,100,0.0,.,0.00,0.00
15min,AgWx,bigpiney,439,29NOV2018:02:00:00,22.0,12.63,20.9,20.6,20.2,21.0,19.0,86,89,84,0.324,16.7,17.2,16.1,0.789,1.9,212,18,3.6,-0.00000,-0.00000,33.0,34.9,45,0,100,0.0,.,0.00,0.00
15min,AgWx,bigpiney,439,29NOV2018:02:15:00,21.9,12.62,20.3,19.0,20.1,21.0,18.8,85,89,84,0.313,16.4,16.9,14.9,2.017,1.1,252,65,3.2,-0.00001,-0.00002,33.0,34.9,45,0,100,0.0,.,0.00,0.00
15min,AgWx,bigpiney,439,29NOV2018:02:30:00,21.6,12.61,18.6,17.6,18.3,19.2,17.6,88,89,86,0.296,15.5,16.3,14.3,2.236,1.6,236,72,3.2,-0.00001,-0.00001,33.0,34.9,45,0,100,0.0,.,0.00,0.00
15min,AgWx,bigpiney,439,29NOV2018:02:45:00,21.2,12.59,19.0,18.5,18.4,19.3,17.6,87,89,85,0.304,15.3,16.0,14.8,2.302,1.9,205,18,4.4,-0.00000,-0.00000,33.0,34.8,45,0,100,0.0,.,0.00,0.00
15min,AgWx,bigpiney,439,29NOV2018:03:00:00,21.2,12.59,19.5,19.6,19.0,19.6,18.3,85,87,83,0.304,15.3,15.6,14.7,2.105,1.8,242,47,3.6,-0.00000,-0.00000,33.0,34.9,45,0,100,0.0,.,0.00,0.00
15min,AgWx,bigpiney,439,29NOV2018:03:15:00,21.2,12.59,19.9,19.3,19.5,19.7,19.3,84,86,83,0.310,15.5,15.8,15.3,4.077,2.9,196,20,4.4,0.00001,0.00002,33.0,34.9,45,0,100,0.0,.,0.00,0.00
15min,AgWx,bigpiney,439,29NOV2018:03:30:00,21.3,12.58,20.1,19.5,19.7,19.9,19.4,85,86,84,0.305,15.9,16.1,15.4,3.179,2.2,180,28,3.9,0.00000,0.00001,33.0,34.9,45,0,100,0.0,.,0.00,0.00
15min,AgWx,bigpiney,439,29NOV2018:03:45:00,21.3,12.57,18.1,17.3,17.9,19.3,17.3,87,89,84,0.292,14.7,15.6,14.2,1.798,1.5,331,18,2.7,-0.00001,-0.00001,33.0,34.9,45,0,100,0.0,.,0.00,0.00
15min,AgWx,bigpiney,439,29NOV2018:04:00:00,21.3,12.57,17.8,17.6,17.4,17.6,17.2,89,89,88,0.297,14.6,14.9,14.4,0.877,1.7,326,7.3,2.5,-0.00001,-0.00001,33.0,34.9,45,0,100,0.0,.,0.00,0.00
15min,AgWx,bigpiney,439,29NOV2018:04:15:00,21.2,12.55,18.4,18.3,17.9,18.3,17.5,88,89,88,0.304,15.0,15.4,14.7,0.899,1.1,261,31,1.8,-0.00002,-0.00002,33.0,34.9,45,0,100,0.0,.,0.00,0.00
15min,AgWx,bigpiney,439,29NOV2018:04:30:00,21.2,12.57,19.2,19.0,18.6,19.1,18.3,88,89,88,0.313,15.7,16.1,15.4,2.543,2.1,224,22,3.1,-0.00000,-0.00000,33.0,34.9,45,0,100,0.0,.,0.00,0.00
15min,AgWx,bigpiney,439,29NOV2018:04:45:00,21.3,12.56,19.9,19.6,19.4,19.7,19.0,87,88,86,0.315,16.2,16.4,16.0,2.368,1.1,224,52,2.7,-0.00002,-0.00002,33.0,34.9,45,0,100,0.0,.,0.00,0.00
15min,AgWx,bigpiney,439,29NOV2018:05:00:00,21.5,12.56,20.5,20.9,19.9,20.9,19.4,85,87,83,0.321,16.2,16.6,16.0,3.069,1.0,292,57,3.1,-0.00002,-0.00002,33.0,34.9,45,0,100,0.0,.,0.00,0.00
15min,AgWx,bigpiney,439,29NOV2018:05:15:00,21.7,12.55,21.6,21.0,21.1,21.3,20.8,82,83,81,0.317,16.4,16.7,16.1,2.916,1.4,277,52,3.6,-0.00000,-0.00000,33.0,34.9,45,0,100,0.0,.,0.00,0.00
15min,AgWx,bigpiney,439,29NOV2018:05:30:00,21.9,12.55,20.9,19.7,20.6,21.3,19.5,83,86,81,0.312,16.2,16.6,15.6,2.762,2.3,300,77,3.7,0.00001,0.00002,33.0,34.9,45,0,100,0.0,.,0.00,0.00
15min,AgWx,bigpiney,439,29NOV2018:05:45:00,21.9,12.54,19.7,19.3,19.4,19.8,19.1,86,87,84,0.311,15.8,16.0,15.7,0,0.9,21,35,3.7,-0.00002,-0.00002,33.0,34.9,45,0,100,0.0,.,0.00,0.00
15min,AgWx,bigpiney,439,29NOV2018:06:00:00,21.8,12.54,20.2,18.5,19.8,20.7,18.5,84,87,82,0.296,15.9,16.3,14.8,1.008,0.4,34,62,1.4,-0.00003,-0.00004,33.0,34.9,45,0,100,0.0,.,0.00,0.00
15min,AgWx,bigpiney,439,29NOV2018:06:15:00,21.5,12.54,19.0,18.6,18.7,19.2,18.3,87,88,85,0.307,15.5,16.0,14.8,0.811,0.4,124,23,1.3,-0.00003,-0.00004,33.0,34.9,45,0,100,0.0,.,0.00,0.00
15min,AgWx,bigpiney,439,29NOV2018:06:30:00,21.3,12.54,21.2,21.0,20.5,21.0,18.7,84,89,81,0.316,16.3,16.6,15.8,3.508,2.3,202,8.4,3.5,0.00001,0.00001,33.0,34.9,45,0,100,0.0,.,0.00,0.00
15min,AgWx,bigpiney,439,29NOV2018:06:45:00,21.1,12.54,19.9,19.5,19.6,21.0,18.9,85,88,82,0.317,15.8,16.5,15.2,3.836,3.8,207,7.7,4.6,0.00002,0.00003,33.0,34.8,45,0,100,0.0,.,0.00,0.00
15min,AgWx,bigpiney,439,29NOV2018:07:00:00,20.7,12.53,18.2,17.5,18.1,19.5,17.3,87,87,86,0.292,14.8,16.3,13.7,2.916,2.7,270,38,4.0,0.00000,0.00001,33.0,34.9,45,0,100,0.0,.,0.00,0.00
15min,AgWx,bigpiney,439,29NOV2018:07:15:00,20.2,12.53,16.6,16.2,16.4,17.6,15.6,90,92,86,0.285,13.9,14.7,13.0,1.14,2.6,24,15,5.5,-0.00000,0.00000,33.0,34.9,45,0,100,0.0,.,0.00,0.00
15min,AgWx,bigpiney,439,29NOV2018:07:30:00,19.7,12.54,16.2,15.4,15.8,16.2,15.4,92,93,90,0.282,13.8,14.2,13.5,1.754,1.6,344,14,2.2,-0.00001,-0.00001,33.0,34.9,45,3,100,0.0,.,0.00,0.00
15min,AgWx,bigpiney,439,29NOV2018:07:45:00,18.8,15.03,14.8,14.6,14.3,15.4,13.3,91,93,90,0.272,12.3,13.6,11.0,0.658,2.6,283,18,3.8,-0.00018,-0.00017,33.0,34.9,45,19,100,0.0,.,0.00,0.00
15min,AgWx,bigpiney,439,29NOV2018:08:00:00,18.1,15.06,15.4,15.3,14.7,15.4,13.7,92,94,91,0.279,12.8,13.8,11.5,2.872,1.0,273,19,3.3,-0.00010,-0.00010,33.0,34.9,45,59,100,0.0,.,0.00,0.00